Hourly Data Report for October 08, 2019

All times are specified in Local Standard Time (LST). Add 1 hour to adjust for Daylight Saving Time where and when it is observed.

ABBOTSFORD A
BRITISH COLUMBIA
Current Station Operator: NAVCAN

49°01'31.000" N
122°21'36.000" W
59.10 m
1100031
71108
YXX

Download Data

Hourly Data (October 2019)
Hourly Data Report for October 8, 2019
TIME Temp Definition
°C
Dew Point Definition
°C
Rel Hum Definition
%
Wind Dir Definition
10's deg

Wind Spd Definition
km/h
Visibility Definition
km
Stn Press Definition
kPa
Hmdx Definition


Wind Chill Definition


Weather Definition


00:00 9.3 5.3 76 19 14 16.1 100.31     LegendNANA
01:00 9.1 5.0 75 20 15 16.1 100.33     Mostly Cloudy
02:00 8.7 5.8 82 19 16 16.1 100.34     LegendNANA
03:00 8.4 5.8 84 20 10 16.1 100.30     LegendNANA
04:00 8.5 5.3 80 21 13 16.1 100.29     Cloudy
05:00 7.3 4.0 80 19 12 16.1 100.29     LegendNANA
06:00 6.9 4.1 83 16 11 16.1 100.31     LegendNANA
07:00 6.9 4.8 86 18 12 24.1 100.34     Rain Showers
08:00 7.3 5.2 86 20 7 32.2 100.39     LegendNANA
09:00 7.5 3.7 77 25 12 24.1 100.48     Rain Showers
10:00 8.2 5.6 84 15 13 32.2 100.52     Mostly Cloudy
11:00 8.4 4.8 78 14 16 32.2 100.55     Rain Showers
12:00 8.7 6.2 84 10 16 24.1 100.62     Rain Showers
13:00 4.5 3.1 91 10 19 32.2 100.72     Rain Showers
14:00 6.4 4.1 85 1 11 40.2 100.72     LegendNANA
15:00 8.0 3.8 75 4 10 48.3 100.78     LegendNANA
16:00 8.5 2.9 68 36 9 40.2 100.92     Mostly Cloudy
17:00 7.1 4.9 86 30 19 40.2 101.04     Rain Showers
18:00 6.8 4.9 88 2 6 40.2 101.11     LegendNANA
19:00 7.4 1.2 65 4 18 16.1 101.19     Mostly Cloudy
20:00 6.5 -2.0 55 4 16 24.1 101.28     LegendNANA
21:00 5.5 -3.1 54 4 16 24.1 101.38     LegendNANA
22:00 5.8 -4.7 47 5 18 24.1 101.47     Clear
23:00 4.8 -4.4 51 2 16 24.1 101.59     LegendNANA

Notes on Data Quality.

Legend

  • E = Estimated
  • M = Missing
  • NA = Not Available
Date modified: